Andover, NJ

7:32 AM EDT on April 26, 2018 (GMT -0400)
Andover

Weather History for K12N - December, 2012

Change the Weather History Date:

Wednesday, December 12, 2012

  Actual Average (KFWN) Record (KFWN)
Temperature  
Mean Temperature 34 °F -  
Max Temperature 41 °F 39 °F 60 °F (1979)
Min Temperature 28 °F 21 °F -3 °F (1958)
Degree Days  
Heating Degree Days 30    
Moisture  
Dew Point 26 °F    
Average Humidity 79    
Maximum Humidity 92    
Minimum Humidity 49    
Precipitation  
Precipitation 0.00 in - - ()
Sea Level Pressure  
Sea Level Pressure 30.38 in    
Wind  
Wind Speed 0 mph (North)    
Max Wind Speed 6 mph    
Max Gust Speed -    
Averages and records for this station are not official NWS values.
T = Trace of Precipitation, MM = Missing Value Source: NWS Daily Summary

Daily Weather History Graph

Daily Weather History Graph

Search for Another Location

Airport or City:

Astronomy

Dec. 12, 2012 Rise Set
Actual Time 7:14 AM EST 4:30 PM EST
Civil Twilight 6:43 AM EST 5:01 PM EST
Nautical Twilight 6:09 AM EST 5:36 PM EST
Astronomical Twilight 5:35 AM EST 6:09 PM EST
Moon 6:16 AM EST (12/12) 4:05 PM EST (12/12)
Length of Visible Light 10h 18m
Length of Day
9h 16m
Waning Crescent, 1% of the Moon is Illuminated
Dec 12
Waning Crescent
Dec 13
New
Dec 20
First Quarter
Dec 28
Full
Jan 4
Last Quarter

Hourly Weather History & Observations

Time (EST) Temp. Windchill Dew Point Humidity Pressure Visibility Wind Dir Wind Speed Gust Speed Precip Events Conditions
12:54 AM 28.9 °F - 27.0 °F 92% 30.22 in - Calm Calm - N/A   Unknown
1:54 AM 28.9 °F - 26.1 °F 89% 30.25 in - Calm Calm - N/A   Unknown
2:54 AM 28.0 °F - 25.0 °F 88% 30.27 in - Calm Calm - N/A   Unknown
3:54 AM 28.0 °F - 26.1 °F 92% 30.28 in - Calm Calm - N/A   Unknown
4:54 AM 28.0 °F - 26.1 °F 92% 30.32 in - Calm Calm - N/A   Unknown
5:54 AM 28.0 °F - 25.0 °F 88% 30.34 in - Calm Calm - N/A   Unknown
6:54 AM 28.0 °F - 25.0 °F 88% 30.36 in - Calm Calm - N/A   Unknown
7:54 AM 28.9 °F - 27.0 °F 92% 30.37 in - Calm Calm - N/A   Unknown
8:54 AM 32.0 °F - 30.0 °F 92% 30.39 in - Calm Calm - N/A   Unknown
9:54 AM 36.0 °F - 28.9 °F 76% 30.41 in - Calm Calm - N/A   Unknown
10:54 AM 37.0 °F - 28.0 °F 70% 30.41 in - Calm Calm - N/A   Unknown
11:54 AM 39.9 °F 35.8 °F 23.0 °F 51% 30.40 in - NNW 5.8 mph - N/A   Unknown
12:54 PM 39.9 °F 37.8 °F 23.0 °F 51% 30.39 in - North 3.5 mph - N/A   Unknown
1:54 PM 41.0 °F - 23.0 °F 49% 30.38 in - Calm Calm - N/A   Unknown
2:54 PM 39.0 °F - 25.0 °F 57% 30.40 in - Calm Calm - N/A   Unknown
3:54 PM 37.9 °F - 24.1 °F 57% 30.40 in - Calm Calm - N/A   Unknown
4:54 PM 35.1 °F - 27.0 °F 72% 30.41 in - Calm Calm - N/A   Unknown
5:54 PM 33.1 °F - 27.0 °F 78% 30.43 in - Calm Calm - N/A   Unknown
6:54 PM 32.0 °F - 27.0 °F 82% 30.42 in - Calm Calm - N/A   Unknown
7:54 PM 30.9 °F - 26.1 °F 82% 30.43 in - Calm Calm - N/A   Unknown
8:54 PM 30.0 °F - 27.0 °F 88% 30.45 in - Calm Calm - N/A   Unknown
9:54 PM 30.0 °F - 26.1 °F 85% 30.45 in - Calm Calm - N/A   Unknown
10:54 PM 30.0 °F - 26.1 °F 85% 30.45 in - Calm Calm - N/A   Unknown
11:54 PM 28.9 °F - 26.1 °F 89% 30.47 in - Calm Calm - N/A   Unknown